CW3794 Weather Reports


Display with metric or nautical units.
time (UTC)temp
F
wind
direction
speed
MPH
gust
MPH
rain 1hr
in
rain 24hr
in
rain mn
in
humidity
%
barometer
mb
20180623214047 102 276 3.0 10.0 0.00 0.00 0.00 19 1008.0
20180623213130 102 283 0.0 10.0 0.00 0.00 0.00 19 1008.1
20180623212336 103 247 2.0 7.0 0.00 0.00 0.00 19 1008.2
20180623212058 103 230 2.0 6.0 0.00 0.00 0.00 19 1008.4
20180623211101 102 213 1.0 9.0 0.00 0.00 0.00 19 1008.5
20180623210122 103 194 0.0 4.0 0.00 0.00 0.00 19 1008.5
20180623205052 102 240 0.0 7.0 0.00 0.00 0.00 20 1008.7
20180623204044 102 207 0.0 4.0 0.00 0.00 0.00 19 1008.9
20180623203334 101 266 0.0 3.0 0.00 0.00 0.00 19 1008.9
20180623203123 101 267 0.0 5.0 0.00 0.00 0.00 19 1009.0
20180623202402 100 270 1.0 11.0 0.00 0.00 0.00 19 1009.0
20180623202053 101 260 1.0 5.0 0.00 0.00 0.00 19 1009.1
20180623201050 100 229 1.0 11.0 0.00 0.00 0.00 20 1009.3
20180623200131 100 259 1.0 5.0 0.00 0.00 0.00 19 1009.4
20180623195058 100 234 4.0 10.0 0.00 0.00 0.00 19 1009.3
20180623194350 100 212 1.0 6.0 0.00 0.00 0.00 19 1009.4
20180623194047 100 222 1.0 6.0 0.00 0.00 0.00 19 1009.4
20180623193403 99 229 0.0 3.0 0.00 0.00 0.00 19 1009.5
20180623193130 99 229 0.0 9.0 0.00 0.00 0.00 19 1009.5
20180623192051 99 219 2.0 4.0 0.00 0.00 0.00 19 1009.6
20180623191049 99 243 0.0 5.0 0.00 0.00 0.00 19 1009.7
20180623190110 100 189 0.0 6.0 0.00 0.00 0.00 19 1009.7
20180623185048 99 267 3.0 10.0 0.00 0.00 0.00 18 1010.7
20180623184102 99 230 1.0 2.0 0.00 0.00 0.00 18 1010.8
20180623183123 98 340 1.0 6.0 0.00 0.00 0.00 19 1010.9
20180623182409 98 246 2.0 12.0 0.00 0.00 0.00 19 1010.0
20180623182057 98 277 4.0 9.0 0.00 0.00 0.00 18 1010.8
20180623181356 98 161 0.0 3.0 0.00 0.00 0.00 20 1010.2
20180623181047 98 213 0.0 3.0 0.00 0.00 0.00 20 1010.9
20180623180130 97 225 0.0 6.0 0.00 0.00 0.00 20 1010.0
20180623175400 97 237 1.0 6.0 0.00 0.00 0.00 20 1010.3
20180623175059 97 223 0.0 2.0 0.00 0.00 0.00 20 1010.9
20180623174333 96 282 0.0 9.0 0.00 0.00 0.00 20 1010.3
20180623174111 96 248 2.0 9.0 0.00 0.00 0.00 19 1010.2
20180623173125 97 197 1.0 2.0 0.00 0.00 0.00 20 1011.1
20180623172410 96 247 0.0 6.0 0.00 0.00 0.00 21 1010.4
20180623172112 96 220 0.0 9.0 0.00 0.00 0.00 21 1010.3
20180623171355 95 222 1.0 5.0 0.00 0.00 0.00 21 1010.4
20180623171125 95 211 0.0 1.0 0.00 0.00 0.00 22 1010.2
20180623170412 95 237 1.0 6.0 0.00 0.00 0.00 21 1010.3
20180623170226 95 222 0.0 3.0 0.00 0.00 0.00 21 1010.1
20180623165422 95 203 0.0 2.0 0.00 0.00 0.00 22 1010.3
20180623165112 96 229 0.0 2.0 0.00 0.00 0.00 22 1011.0
20180623164123 94 211 0.0 2.0 0.00 0.00 0.00 23 1010.2
20180623163418 94 168 0.0 1.0 0.00 0.00 0.00 21 1010.3
20180623163200 94 169 0.0 1.0 0.00 0.00 0.00 25 1011.1
20180623162119 94 78 0.0 5.0 0.00 0.00 0.00 23 1010.2
20180623161129 94 121 0.0 3.0 0.00 0.00 0.00 25 1011.1
20180623160410 93 99 0.0 2.0 0.00 0.00 0.00 24 1010.2
20180623160209 93 92 0.0 4.0 0.00 0.00 0.00 24 1010.3
20180623155356 92 115 0.0 4.0 0.00 0.00 0.00 25 1010.3
20180623155131 92 130 0.0 4.0 0.00 0.00 0.00 26 1011.0
20180623154400 92 148 0.0 4.0 0.00 0.00 0.00 26 1010.3
20180623154126 92 132 0.0 4.0 0.00 0.00 0.00 27 1011.0
20180623153202 91 114 2.0 5.0 0.00 0.00 0.00 26 1011.1
20180623152425 91 110 2.0 7.0 0.00 0.00 0.00 26 1010.2
20180623152113 91 121 1.0 5.0 0.00 0.00 0.00 27 1011.0
20180623151353 90 89 2.0 6.0 0.00 0.00 0.00 27 1010.1
20180623151129 90 74 2.0 5.0 0.00 0.00 0.00 27 1010.9
20180623150148 89 94 1.0 7.0 0.00 0.00 0.00 27 1010.0
20180623145114 89 91 2.0 7.0 0.00 0.00 0.00 27 1010.6
20180623144120 88 105 2.0 7.0 0.00 0.00 0.00 28 1009.6
20180623143421 87 126 1.0 9.0 0.00 0.00 0.00 28 1009.5
20180623143156 87 153 0.0 9.0 0.00 0.00 0.00 28 1009.4
20180623142435 87 143 1.0 4.0 0.00 0.00 0.00 30 1009.5
20180623142117 87 148 0.0 1.0 0.00 0.00 0.00 29 1010.3
20180623141131 87 355 0.0 0.0 0.00 0.00 0.00 31 1010.1
20180623140417 85 355 0.0 0.0 0.00 0.00 0.00 31 1009.3
20180623140154 85 355 0.0 0.0 0.00 0.00 0.00 31 1009.2
20180623135115 83 355 0.0 0.0 0.00 0.00 0.00 31 1009.0
20180623134116 81 355 0.0 0.0 0.00 0.00 0.00 32 1009.0
20180623133412 80 355 0.0 1.0 0.00 0.00 0.00 30 1008.7
20180623133158 80 355 0.0 0.0 0.00 0.00 0.00 31 1008.9
20180623132414 79 355 0.0 0.0 0.00 0.00 0.00 31 1008.6
20180623132125 79 250 0.0 0.0 0.00 0.00 0.00 31 1008.9
20180623131131 79 290 0.0 0.0 0.00 0.00 0.00 32 1008.8
20180623130428 78 291 0.0 1.0 0.00 0.00 0.00 32 1008.3
20180623130150 78 291 0.0 0.0 0.00 0.00 0.00 32 1008.6
20180623125417 77 291 0.0 0.0 0.00 0.00 0.00 32 1008.1
20180623125121 77 290 0.0 0.0 0.00 0.00 0.00 32 1008.3
20180623124127 77 289 0.0 0.0 0.00 0.00 0.00 31 1008.3
20180623123358 77 291 0.0 0.0 0.00 0.00 0.00 31 1007.9
20180623123206 77 292 0.0 1.0 0.00 0.00 0.00 31 1008.2
20180623122131 77 290 0.0 0.0 0.00 0.00 0.00 31 1008.1
20180623121117 77 292 0.0 0.0 0.00 0.00 0.00 31 1007.9
20180623120433 77 292 0.0 0.0 0.00 0.00 0.00 31 1007.4
20180623120154 77 288 0.0 0.0 0.00 0.00 0.00 31 1007.7
20180623115124 78 252 0.0 1.0 0.00 0.00 0.00 31 1007.3
20180623114434 78 254 0.0 1.0 0.00 0.00 0.00 32 1007.2
20180623114131 78 252 0.0 0.0 0.00 0.00 0.00 32 1007.3
20180623113150 78 253 0.0 0.0 0.00 0.00 0.00 33 1007.3
20180623112426 78 254 0.0 0.0 0.00 0.00 0.00 33 1007.1
20180623112117 79 250 0.0 0.0 0.00 0.00 0.00 33 1007.3
20180623111122 79 253 0.0 0.0 0.00 0.00 0.00 32 1007.1
20180623110203 79 252 0.0 0.0 0.00 0.00 0.00 33 1007.1
20180623105422 79 254 0.0 0.0 0.00 0.00 0.00 33 1006.8
20180623105122 79 254 0.0 0.0 0.00 0.00 0.00 33 1006.8
20180623104130 79 256 0.0 0.0 0.00 0.00 0.00 33 1006.6
20180623103156 79 252 0.0 0.0 0.00 0.00 0.00 33 1006.6
20180623102412 79 254 0.0 0.0 0.00 0.00 0.00 33 1006.6
20180623102122 79 255 0.0 0.0 0.00 0.00 0.00 33 1006.6
20180623101133 79 253 0.0 0.0 0.00 0.00 0.00 34 1006.5
20180623100406 80 254 0.0 0.0 0.00 0.00 0.00 33 1006.4
20180623100156 80 254 0.0 0.0 0.00 0.00 0.00 33 1006.4
20180623095118 81 258 0.0 0.0 0.00 0.00 0.00 32 1006.5
20180623094125 81 255 0.0 0.0 0.00 0.00 0.00 32 1006.3
20180623093146 81 256 0.0 0.0 0.00 0.00 0.00 30 1006.5
20180623092357 82 254 0.0 0.0 0.00 0.00 0.00 30 1006.5
20180623092117 82 252 0.0 0.0 0.00 0.00 0.00 30 1006.4
20180623091134 83 253 0.0 0.0 0.00 0.00 0.00 30 1007.3
20180623090150 83 255 0.0 0.0 0.00 0.00 0.00 29 1007.1
20180623085134 83 254 0.0 0.0 0.00 0.00 0.00 29 1006.2
20180623084126 84 254 0.0 0.0 0.00 0.00 0.00 30 1007.1
20180623083426 84 253 0.0 0.0 0.00 0.00 0.00 29 1006.4
20180623083205 84 253 0.0 0.0 0.00 0.00 0.00 29 1007.1
20180623082434 85 254 0.0 0.0 0.00 0.00 0.00 29 1006.4
20180623082130 85 252 0.0 0.0 0.00 0.00 0.00 28 1007.1
20180623081421 86 254 0.0 0.0 0.00 0.00 0.00 27 1006.4
20180623081132 86 254 0.0 0.0 0.00 0.00 0.00 27 1007.0
20180623080408 87 254 0.0 0.0 0.00 0.00 0.00 27 1006.3
20180623080153 87 254 0.0 0.0 0.00 0.00 0.00 26 1007.0
20180623075120 89 253 0.0 0.0 0.00 0.00 0.00 25 1006.9
20180623074128 90 254 0.0 0.0 0.00 0.00 0.00 25 1006.9
20180623073229 91 254 0.0 1.0 0.00 0.00 0.00 23 1006.8
20180623072420 91 253 0.0 4.0 0.00 0.00 0.00 24 1006.2
20180623072132 91 254 0.0 4.0 0.00 0.00 0.00 24 1006.7
20180623071124 91 249 0.0 2.0 0.00 0.00 0.00 24 1006.7
20180623070203 92 234 0.0 0.0 0.00 0.00 0.00 23 1006.8
20180623065400 93 234 0.0 2.0 0.00 0.00 0.00 22 1006.3
20180623065138 93 232 0.0 7.0 0.00 0.00 0.00 22 1006.8
20180623064121 93 264 0.0 7.0 0.00 0.00 0.00 22 1006.7
20180623063144 94 178 1.0 9.0 0.00 0.00 0.00 21 1006.7
20180623062403 94 248 0.0 5.0 0.00 0.00 0.00 21 1006.2
20180623062137 94 252 1.0 5.0 0.00 0.00 0.00 21 1006.6
20180623061126 93 258 1.0 4.0 0.00 0.00 0.00 21 1006.6
20180623060208 93 254 0.0 0.0 0.00 0.00 0.00 20 1006.6
20180623055121 94 254 0.0 5.0 0.00 0.00 0.00 20 1006.6
20180623054447 94 221 0.0 1.0 0.00 0.00 0.00 20 1006.0
20180623054124 94 221 0.0 0.0 0.00 0.00 0.00 20 1006.6
20180623053417 94 220 0.0 1.0 0.00 0.00 0.00 19 1006.1
20180623053205 94 220 0.0 1.0 0.00 0.00 0.00 20 1006.6
20180623052411 94 220 0.0 0.0 0.00 0.00 0.00 20 1006.0
20180623052130 94 221 0.0 0.0 0.00 0.00 0.00 19 1006.5
20180623051120 94 221 0.0 0.0 0.00 0.00 0.00 20 1006.5
20180623050414 94 220 0.0 1.0 0.00 0.00 0.00 20 1005.9
20180623050202 94 221 0.0 1.0 0.00 0.00 0.00 19 1006.4
20180623045404 94 221 0.0 2.0 0.00 0.00 0.00 19 1005.9
20180623045129 94 220 0.0 2.0 0.00 0.00 0.00 20 1006.5
20180623044122 95 221 0.0 0.0 0.00 0.00 0.00 19 1006.3
20180623043414 96 221 0.0 0.0 0.00 0.00 0.00 19 1005.7
20180623043202 96 221 0.0 0.0 0.00 0.00 0.00 18 1006.2
20180623042418 97 220 0.0 0.0 0.00 0.00 0.00 18 1005.6
20180623042125 97 219 0.0 0.0 0.00 0.00 0.00 18 1006.0
20180623041405 98 220 0.0 0.0 0.00 0.00 0.00 17 1005.5
20180623041139 98 219 0.0 0.0 0.00 0.00 0.00 17 1005.8
20180623040424 98 220 0.0 1.0 0.00 0.00 0.00 17 1005.2
20180623040159 98 221 0.0 1.0 0.00 0.00 0.00 17 1005.7
20180623035124 98 220 0.0 0.0 0.00 0.00 0.00 17 1005.6
20180623034137 98 220 0.0 0.0 0.00 0.00 0.00 17 1005.6
20180623033416 98 220 0.0 0.0 0.00 0.00 0.00 17 1004.8
20180623033159 98 220 0.0 0.0 0.00 0.00 0.00 18 1005.4
20180623032407 99 220 0.0 0.0 0.00 0.00 0.00 17 1004.8
20180623032121 99 220 0.0 0.0 0.00 0.00 0.00 18 1005.1
20180623031128 100 221 0.0 1.0 0.00 0.00 0.00 16 1005.1
20180623030205 101 219 0.0 2.0 0.00 0.00 0.00 15 1004.9
20180623025134 101 220 0.0 2.0 0.00 0.00 0.00 15 1005.2
20180623024135 102 218 0.0 2.0 0.00 0.00 0.00 15 1005.2
20180623023444 102 210 0.0 4.0 0.00 0.00 0.00 15 1004.4
20180623023201 103 207 0.0 3.0 0.00 0.00 0.00 15 1005.1
20180623022436 103 199 0.0 4.0 0.00 0.00 0.00 15 1004.5
20180623022140 103 198 0.0 4.0 0.00 0.00 0.00 14 1005.2
20180623021144 104 191 0.0 4.0 0.00 0.00 0.00 15 1005.2
20180623020206 104 210 1.0 2.0 0.00 0.00 0.00 15 1005.2
20180623015342 104 218 1.0 4.0 0.00 0.00 0.00 15 1004.5
20180623015046 104 217 0.0 4.0 0.00 0.00 0.00 15 1004.5
20180623014033 105 226 1.0 9.0 0.00 0.00 0.00 14 1004.4
20180623013114 105 202 4.0 7.0 0.00 0.00 0.00 14 1004.4
20180623012307 105 206 2.0 6.0 0.00 0.00 0.00 15 1004.6
20180623012030 105 200 2.0 6.0 0.00 0.00 0.00 15 1005.5
20180623011027 106 213 2.0 6.0 0.00 0.00 0.00 15 1005.5
20180623010107 106 202 1.0 9.0 0.00 0.00 0.00 14 1004.6
20180623005033 106 215 1.0 4.0 0.00 0.00 0.00 15 1004.8
20180623004040 106 241 3.0 12.0 0.00 0.00 0.00 14 1005.0
20180623003350 107 239 2.0 12.0 0.00 0.00 0.00 14 1004.8
20180623003101 107 252 1.0 11.0 0.00 0.00 0.00 14 1005.1
20180623002316 107 261 2.0 12.0 0.00 0.00 0.00 14 1004.9
20180623002034 107 217 4.0 12.0 0.00 0.00 0.00 14 1005.1
20180623001038 107 207 0.0 6.0 0.00 0.00 0.00 14 1005.2
20180623000113 107 231 2.0 9.0 0.00 0.00 0.00 14 1005.4
20180622235046 107 232 2.0 6.0 0.00 0.00 0.00 14 1005.6
20180622234309 107 243 2.0 10.0 0.00 0.00 0.00 14 1005.5
20180622234041 107 273 2.0 10.0 0.00 0.00 0.00 14 1005.7
20180622233342 107 249 1.0 11.0 0.00 0.00 0.00 13 1005.6
20180622233101 107 245 0.0 7.0 0.00 0.00 0.00 13 1005.9
20180622232349 107 236 2.0 7.0 0.00 0.00 0.00 13 1005.8
20180622232035 107 205 0.0 7.0 0.00 0.00 0.00 13 1006.1
20180622231028 107 254 1.0 3.0 0.00 0.00 0.00 13 1006.2
20180622230318 107 201 1.0 4.0 0.00 0.00 0.00 14 1006.1
20180622230107 107 202 0.0 7.0 0.00 0.00 0.00 13 1006.2
20180622225349 107 225 2.0 12.0 0.00 0.00 0.00 13 1006.2
20180622225038 107 242 4.0 12.0 0.00 0.00 0.00 13 1006.2
20180622224340 107 207 1.0 6.0 0.00 0.00 0.00 14 1006.4
20180622224029 107 236 0.0 7.0 0.00 0.00 0.00 13 1006.4
20180622223309 107 236 2.0 10.0 0.00 0.00 0.00 13 1006.5
20180622223107 107 215 3.0 10.0 0.00 0.00 0.00 13 1006.6
20180622222351 107 241 1.0 6.0 0.00 0.00 0.00 13 1006.7
20180622222033 107 230 1.0 6.0 0.00 0.00 0.00 13 1006.8
20180622221047 106 209 0.0 6.0 0.00 0.00 0.00 13 1006.9
20180622220327 106 258 3.0 9.0 0.00 0.00 0.00 13 1007.0
20180622220107 106 252 3.0 12.0 0.00 0.00 0.00 13 1007.2
20180622215346 106 284 5.0 12.0 0.00 0.00 0.00 13 1007.0
20180622215035 106 234 2.0 6.0 0.00 0.00 0.00 13 1007.2